{"data":{"norad_id":60372,"epoch":"2026-05-25T04:11:24.441216Z","epoch_age_seconds":53787,"freshness":"FRESH","line1":"1 60372U 24138T   26145.17458844  .00000816  00000+0  39665-4 0  9992","line2":"2 60372  53.1610 314.6346 0001298 104.5866 255.5279 15.30195241102338","mean_motion":15.30195241,"eccentricity":0.0001298,"inclination_deg":53.161,"raan_deg":314.6346,"arg_perigee_deg":104.5866,"mean_anomaly_deg":255.5279,"bstar":3.9665e-5,"rev_number":10233,"period_min":94.105638379776,"perigee_km":474.33971202932,"apogee_km":476.11884591535,"semimajor_km":6853.3662789723,"source":"CELESTRAK","updated_at":"2026-05-25T13:38:19.241581Z"}}